COSMOS 249 DEB, 6764

Orbit data source: Space-Track

COSMOS 249 DEB, 6764 is space debris in LEO originally from a launch on Sun, 20 Oct 1968 UTC launched from the Tyuratam Missile And Space Complex (TTMTR). Debris objects in space refer to the collection of defunct objects orbiting the Earth. Examples of debris include non-operational satellites, rocket bodies, and fragments generated from explosions, collisions, or faulty payload assembly.

Loading next visibility...
Identifier
6764, 1968-091CK
Orbit
LEO
Country
Flag of CISCIS
Related business
Manufacturer
Unknown
Mission
Spacecraft
Bus & Motor
Unknown
Mass
Unknown
Launch date (UTC)
1968-10-20 (58 years ago)
Launch vehicle
Unknown
Launch site
Tyuratam Missile And Space Complex (TTMTR)
Object type
Payload
Rocket body
Debris
Shape & HBR
Unknown shape, 0.1 m
Radar Cross Section
Small (<0.1 m²)

Expand to show TLE details & history
Last TLE update: 2 days ago

TLE from 2 days ago
0 COSMOS 249 DEB
1 06764U 68091CK  26124.09883064  .00000087  00000-0  44650-3 0  9997
2 06764  62.3410 157.1514 0761139 348.3842  38.0535 12.38168122719717
Epoch: 2026-05-04T02:22Z
TLE epoch observation values (Epoch: 2026-05-04T02:22:18.967Z)
Latitude
28.2615°
Longitude
-84.14375°
Altitude
1,062.578 km
Speed
7.531 km/s
True Right ascension
11h 33m 42s
True Declination
28° 07' 27"
Sunlit
Object was in daylight at epoch
Visualization orbit readout
Latitude
Unknown
Longitude
Unknown
Altitude
Unknown
Speed
Unknown
Apparent Right ascension
Unknown
Apparent Declination
Unknown
Sunlit
N/A
Visualization observer readout
Local Sidereal Time
07:18:55
Azimuth
Unknown
Elevation
Unknown
Doppler factor
Unknown
Orbital elements
Apogee altitude
2,114.043 km
Perigee altitude
912.733 km
Semi-major axis
7,891.525 km
Eccentricity
0.07611
Inclination
62.341°
RAAN
157.1514°
Arg. of periapsis
348.3842°
True anomaly
43.85355°
Mean anomaly
38.0535°
Eccentric anomaly
40.90937°
Mean motion
3.09601 °/min
Orbital period
116.28 mins
BSTAR
0.0004465
Loading maneuver chart data...
Computing Atmospheric mass density...

Documentation

Showing up to 5 results
|